Regional Weather Roundup
Issued by NWS

Home | Current Version | Previous Version | Text Only | Print | Product List | Glossary On
Versions: 1 2 3 4 5 6 7 8 9 10 11 12 13 14 15 16 17 18 19 20 21 22 23 24 25 26 27 28 29 30 31 32 33 34 35 36 37 38 39 40 41 42 43 44 45 46 47 48 49 50
000
ASUS43 KMKX 050659
RWRWI

WISCONSIN REGIONAL WEATHER ROUNDUP
NATIONAL WEATHER SERVICE MILWAUKEE/SULLIVAN WI
100 AM CST THU MAR 05 2015

NOTE: "FAIR" INDICATES FEW OR NO CLOUDS BELOW 12,000 FEET WITH NO
SIGNIFICANT WEATHER AND/OR OBSTRUCTIONS TO VISIBILITY.

WIZ001-002-006>008-014>016-023>028-050800-
NORTHWEST WISCONSIN

CITY           SKY/WX    TMP DP  RH WIND       PRES   REMARKS
SUPERIOR ARPT  CLEAR     -7 -15  67 SW5       30.42R WCI -18
ASHLAND        CLEAR     -6 -16  61 W9        30.38R WCI -23
HAYWARD        CLEAR    -18 -26  67 CALM      30.34S
SIREN          CLEAR    -12 -19  71 CALM      30.40S
CUMBERLAND     CLEAR     -9 -20  59 NW3       30.35S
RICE LAKE      CLEAR    -11 -19  68 W3        30.38R
CHETEK         CLEAR    -11 -16  80 CALM      30.37R
LADYSMITH      CLEAR    -12 -18  75 CALM      30.35R
EAU CLAIRE     NOT AVBL
MENOMONIE      CLEAR     -2 -13  59 W7        30.40R WCI -16
NEW RICHMOND   CLEAR     -7 -15  66 W5        30.40S WCI -18
OSCEOLA        CLEAR    -10 -18  70 CALM      30.45R
$$

WIZ003>005-009-010-017-018-050800-
NORTH CENTRAL WISCONSIN

CITY           SKY/WX    TMP DP  RH WIND       PRES   REMARKS
MANITOWISH WTR CLEAR     -9 -18  65 NW8       30.24S WCI -26
ARBOR VITAE    CLEAR     -9 -16  70 CALM      30.24S
WOODRUFF       CLEAR     -9 -16  70 CALM      30.24S
RHINELANDER    CLEAR     -9 -16  71 W8        30.24S WCI -25
EAGLE RIVER    CLEAR    -11 -20  65 CALM      30.22S
LAND O LAKES   CLEAR     -9 -15  78 NW5       30.22F WCI -21
PHILLIPS       CLEAR    -18 -23  78 CALM      30.28R
TOMAHAWK       FAIR     -12 -17  79 CALM      30.27S
MEDFORD        CLEAR     -8 -16  70 W3        30.28R
MERRILL        CLEAR    -12 -18  74 CALM      30.29S
$$

WIZ029-030-035-036-043>047-050800-
CENTRAL WISCONSIN

CITY           SKY/WX    TMP DP  RH WIND       PRES   REMARKS
WAUSAU         FAIR      -5 -14  65 CALM      30.31R
MOSINEE        CLEAR     -4 -13  65 W3        30.31R
MARSHFIELD     CLEAR     -7 -16  65 W5        30.34R WCI -18
STEVENS POINT  CLEAR     -7 -16  65 CALM      30.35R
WAUPACA        CLEAR      3 -11  52 NW5       30.38R WCI  -7
WAUTOMA        NOT AVBL
WISC RAPIDS    CLEAR     -5 -14  65 CALM      30.39R
CAMP DOUGLAS   NOT AVBL
$$

WIZ011>013-019>022-031-037>040-048>050-050800-
NORTHEAST WISCONSIN

CITY           SKY/WX    TMP DP  RH WIND       PRES   REMARKS
ANTIGO         CLEAR    -10 -16  73 NW3       30.26S
SHAWANO        CLEAR      1 -12  53 CALM      30.36R
OCONTO         FAIR     -10 -17  71 SW3       30.38R
STURGEON BAY   CLEAR      0 -15  50 NW7       30.36R WCI -13
GREEN BAY      CLEAR     -4 -13  65 NW5       30.38R WCI -15
MANITOWOC      NOT AVBL
APPLETON       CLEAR      1 -15  46 NW6       30.36R WCI -10
CLINTONVILLE   CLEAR      0 -11  60 W3        30.38R
OSHKOSH        PTCLDY     2 -10  57 W6        30.37R WCI  -9
$$

WIZ032>034-041-042-053>061-050800-
SOUTHWEST WISCONSIN

CITY           SKY/WX    TMP DP  RH WIND       PRES   REMARKS
LA CROSSE      CLEAR      0  -9  65 CALM      30.44R
SPARTA         CLEAR     -2 -11  65 CALM      30.42R
VIROQUA        CLEAR     -1  -9  69 NW3       30.36R
BOSCOBEL       CLEAR      1  -7  68 CALM      30.42F HAZE
PRAIRIE DU CHI CLEAR      2  -9  60 W8        30.45R WCI -12
PLATTEVILLE    CLEAR      1  -6  72 W7        30.38R WCI -11
$$

WIZ056-057-062-063-064-067-068-050800-
SOUTH CENTRAL WISCONSIN

CITY           SKY/WX    TMP DP  RH WIND       PRES   REMARKS
REEDSBURG      CLEAR      3  -6  67 NW3       30.39R
BARABOO/DELLS  CLEAR      2 -10  55 CALM      30.38R
LONE ROCK      NOT AVBL
MINERAL POINT  CLEAR      3  -4  72 NW5       30.35S WCI  -6
MADISON        CLEAR      5  -7  57 NW6       30.37S WCI  -6
MIDDLETON      CLEAR      4  -6  63 NW5       30.38R WCI  -5
WATERTOWN      PTCLDY     5  -8  56 NW3       30.36R
MONROE         PTCLDY     5  -2  72 W10       30.35R WCI -10
JANESVILLE     PTCLDY     1  -8  66 NW5       30.37R WCI  -8
$$

WIZ051-052-058>065-066-070>072-050800-
SOUTHEAST WISCONSIN

CITY           SKY/WX    TMP DP  RH WIND       PRES   REMARKS
MILWAUKEE      MOCLDY     9  -9  44 NW8       30.37R WCI  -3
WAUKESHA       PTCLDY     5  -9  51 NW6       30.36R WCI  -6
MILWAUKEE/TIMM PTCLDY     7  -9  47 NW6       30.37R WCI  -3
RACINE         CLEAR      8 -10  43 NW3       30.39R
BURLINGTON     PTCLDY    -3 -12  68 CALM      30.36R
KENOSHA        CLEAR      3  -9  57 NW5       30.37R WCI  -6
FOND DU LAC    PTCLDY     2 -10  57 W8        30.37R WCI -12
SHEBOYGAN      PTCLDY     3 -10  54 NW5       30.36R WCI  -6
WEST BEND      PTCLDY     5  -9  51 NW6       30.35R WCI  -6
JUNEAU         PTCLDY     3  -8  58 NW3       30.36S
$$

LSZ147-162-050800-
LAKE SUPERIOR

STATION/POSITION TIME  TEMP    WIND        PRES    WAVE
                       AIR SEA DIR/SP/G            HT/PER
                 (UTC) (F)     (DEG/KT/KT) (MB)    (FT/S)
DEVILS ISLAND    0600    5     340/  5/  7 1029.9R
PORT WING        0600    3     290/  8/ 13 1028.8R
SAXON HARBOR     0600   -1     220/  7/ 11 1028.1
$$

LMZ867-665-643>646-050800-
LAKE MICHIGAN

STATION/POSITION TIME  TEMP    WIND        PRES    WAVE
                       AIR SEA DIR/SP/G            HT/PER
                 (UTC) (F)     (DEG/KT/KT) (MB)    (FT/S)
NORTHPORT PIER   0612    3     290/  9/ 19 1027.1S
KEWAUNEE LAKESHO 0600    3     300/  3/  6 1026.8R
SHEBOYGAN LAKESH 0600    8     310/  8/ 10 1029.9R
PORT WASHINGTON  0600    8     300/  5/  8 1028.8
MILWAUKEE LAKESH 0600   10     310/  9/ 13   N/A
KENOSHA   LAKESH 0600    8     300/  7/  9 1027.8R
$$

TC  - TEMPERATURE IN CELSIUS
VSB - VISIBILITY IN STATUTE MILES
WCI - WIND CHILL INDEX
HX  - HEAT INDEX




USA.gov is the U.S. government's official web portal to all federal, state and local government web resources and services.